This is the latest recevied weather packets stored in our database for station/object DB0OHA-10. If no packets are shown the sender has not sent any weather packets the latest 10 day(s).
| Time | Temp. | Humidity | Pressure | Rain* | Wind** | Luminosity | Snow |
|---|---|---|---|---|---|---|---|
| 1777556719 | 17.22° C | 39% | 1029.1 hPa | 0 mm | - | 626 W/m² | - |
| 1777555819 | 16.67° C | 38% | 1029.3 hPa | 0 mm | - | 652 W/m² | - |
| 1777554919 | 16.67° C | 38% | 1029.5 hPa | 0 mm | - | 679 W/m² | - |
| 1777554019 | 16.67° C | 36% | 1029.5 hPa | 0 mm | - | 687 W/m² | - |
| 1777553119 | 16.11° C | 37% | 1029.6 hPa | 0 mm | - | 657 W/m² | - |
| 1777552219 | 16.67° C | 37% | 1029.8 hPa | 0 mm | - | 722 W/m² | - |
| 1777551319 | 16.11° C | 37% | 1029.7 hPa | 0 mm | - | 735 W/m² | - |
| 1777550419 | 15.56° C | 37% | 1029.9 hPa | 0 mm | - | 747 W/m² | - |
| 1777549519 | 16.11° C | 37% | 1030.2 hPa | 0 mm | - | 759 W/m² | - |
| 1777548619 | 16.11° C | 36% | 1030.3 hPa | 0 mm | - | 698 W/m² | - |
| 1777547719 | 15.56° C | 35% | 1030.4 hPa | 0 mm | - | 684 W/m² | - |
| 1777546819 | 15° C | 37% | 1030.6 hPa | 0 mm | - | 754 W/m² | - |
| 1777545919 | 15° C | 38% | 1030.8 hPa | 0 mm | - | 698 W/m² | - |
| 1777545019 | 14.44° C | 38% | 1030.9 hPa | 0 mm | - | 591 W/m² | - |
| 1777544119 | 13.89° C | 39% | 1031 hPa | 0 mm | - | 624 W/m² | - |
| 1777543219 | 13.89° C | 39% | 1030.9 hPa | 0 mm | - | 714 W/m² | - |
| 1777542319 | 13.33° C | 38% | 1031 hPa | 0 mm | - | 708 W/m² | - |
| 1777541419 | 12.78° C | 39% | 1031 hPa | 0 mm | - | 693 W/m² | - |
| 1777540519 | 12.78° C | 41% | 1031.2 hPa | 0 mm | - | 675 W/m² | - |
| 1777539619 | 12.22° C | 41% | 1031.3 hPa | 0 mm | - | 650 W/m² | - |
| 1777538719 | 11.67° C | 40% | 1031.5 hPa | 0 mm | - | 626 W/m² | - |
| 1777537819 | 11.11° C | 39% | 1031.4 hPa | 0 mm | - | 601 W/m² | - |
| 1777536919 | 11.11° C | 40% | 1031.5 hPa | 0 mm | - | 571 W/m² | - |
| 1777536019 | 10.56° C | 40% | 1031.4 hPa | 0 mm | - | 541 W/m² | - |
| 1777535119 | 10° C | 39% | 1031.3 hPa | 0 mm | - | 510 W/m² | - |
* Rain latest hour (hover to see other rain measurements)
** Current wind speed in m/s (hover to see current wind gust speed)